Waukegan, IL

9:48 PM CDT on October 19, 2017 (GMT -0500)
Waukegan Regional

Weather History for KUGN - August, 2013

Change the Weather History Date:

Tuesday, August 27, 2013

  Actual Average Record
Temperature  
Mean Temperature 87 °F -  
Max Temperature 96 °F 78 °F 96 °F (2013)
Min Temperature 77 °F 60 °F 48 °F (2015)
Degree Days  
Heating Degree Days 0 1  
Month to date heating degree days 12 3  
Since 1 June heating degree days 136 101  
Since 1 July heating degree days 39 15  
Cooling Degree Days 22 5  
Month to date cooling degree days 130 152  
Year to date cooling degree days 454 487  
Since 1 June cooling degree days 407 462  
Growing Degree Days 36 (Base 50)    
Moisture  
Dew Point 71 °F    
Average Humidity 61    
Maximum Humidity 79    
Minimum Humidity 42    
Precipitation  
Precipitation 0.00 in 0.12 in 1.23 in (2009)
Month to date precipitation 1.14 3.39  
Year to date precipitation 21.62 24.01  
Sea Level Pressure  
Sea Level Pressure 29.86 in    
Wind  
Wind Speed 10 mph (SW)    
Max Wind Speed 23 mph    
Max Gust Speed 30 mph    
Visibility 10 miles    
Events      
T = Trace of Precipitation, MM = Missing Value Source: NWS Daily Summary

Daily Weather History Graph

Daily Weather History Graph

Search for Another Location

Airport or City:

Trip Planner

Search our weather history database for the weather conditions in past years. The results will help you decide how hot, cold, wet, or windy it might be!

Date:

Astronomy

Aug. 27, 2013 Rise Set
Actual Time 6:11 AM CDT 7:33 PM CDT
Civil Twilight 5:42 AM CDT 8:02 PM CDT
Nautical Twilight 5:07 AM CDT 8:37 PM CDT
Astronomical Twilight 4:29 AM CDT 9:14 PM CDT
Moon 11:17 PM CDT (8/27) 1:18 PM CDT (8/27)
Length of Visible Light 14h 20m
Length of Day
13h 21m
Waning Gibbous, 57% of the Moon is Illuminated
Aug 27
Waning Gibbous
Aug 28
Last Quarter
Sep 5
New
Sep 12
First Quarter
Sep 19
Full

Hourly Weather History & Observations

Time (CDT) Temp. Heat Index Dew Point Humidity Pressure Visibility Wind Dir Wind Speed Gust Speed Precip Events Conditions
12:52 AM 78.1 °F - 71.1 °F 79% 29.94 in 9.0 mi SW 8.1 mph - N/A   Clear
1:52 AM 78.1 °F - 71.1 °F 79% 29.94 in 9.0 mi SW 8.1 mph - N/A   Clear
2:52 AM 78.1 °F - 71.1 °F 79% 29.91 in 9.0 mi SW 8.1 mph - N/A   Clear
3:52 AM 78.1 °F - 70.0 °F 76% 29.90 in 9.0 mi Variable 5.8 mph - N/A   Clear
4:52 AM 78.1 °F - 70.0 °F 76% 29.91 in 9.0 mi SW 4.6 mph - N/A   Clear
5:52 AM 77.0 °F - 70.0 °F 79% 29.91 in 10.0 mi Variable 3.5 mph - N/A   Clear
6:52 AM 77.0 °F - 70.0 °F 79% 29.92 in 8.0 mi SW 4.6 mph - N/A   Clear
7:52 AM 77.0 °F - 70.0 °F 79% 29.93 in 9.0 mi Variable 3.5 mph - N/A   Clear
8:52 AM 80.1 °F 83.2 °F 70.0 °F 71% 29.93 in 9.0 mi West 3.5 mph - N/A   Clear
9:52 AM 82.9 °F 87.0 °F 70.0 °F 65% 29.92 in 10.0 mi Variable 4.6 mph - N/A   Clear
10:52 AM 88.0 °F 93.8 °F 71.1 °F 57% 29.89 in 10.0 mi SW 9.2 mph - N/A   Clear
11:52 AM 91.0 °F 95.6 °F 69.1 °F 48% 29.87 in 10.0 mi SW 16.1 mph - N/A   Clear
12:52 PM 93.0 °F 97.9 °F 69.1 °F 45% 29.86 in 10.0 mi SW 11.5 mph 19.6 mph N/A   Clear
1:52 PM 95.0 °F 100.7 °F 69.1 °F 43% 29.83 in 10.0 mi SSW 18.4 mph 24.2 mph N/A   Clear
2:52 PM 96.1 °F 101.6 °F 69.1 °F 41% 29.81 in 10.0 mi SW 19.6 mph 28.8 mph N/A   Clear
3:52 PM 93.9 °F 99.1 °F 69.1 °F 44% 29.79 in 10.0 mi SW 13.8 mph 28.8 mph N/A   Clear
4:52 PM 93.0 °F 100.7 °F 72.0 °F 50% 29.78 in 10.0 mi SSW 20.7 mph 28.8 mph N/A   Clear
5:52 PM 91.0 °F 98.2 °F 72.0 °F 53% 29.79 in 10.0 mi SSW 18.4 mph 26.5 mph N/A   Clear
6:52 PM 89.1 °F 96.0 °F 72.0 °F 57% 29.80 in 10.0 mi SW 17.3 mph 23.0 mph N/A   Clear
7:52 PM 87.1 °F 94.5 °F 73.0 °F 63% 29.79 in 10.0 mi SW 13.8 mph - N/A   Clear
8:52 PM 86.0 °F 93.0 °F 73.0 °F 65% 29.82 in 10.0 mi SW 12.7 mph 20.7 mph N/A   Clear
9:52 PM 84.9 °F 90.7 °F 72.0 °F 65% 29.81 in 10.0 mi SW 6.9 mph - N/A   Clear
10:52 PM 84.0 °F 89.0 °F 71.1 °F 65% 29.79 in 10.0 mi SW 9.2 mph 19.6 mph N/A   Clear
11:52 PM 82.9 °F 87.0 °F 70.0 °F 65% 29.78 in 10.0 mi Variable 6.9 mph - N/A   Clear